Sheridan, NY

5:08 AM EDT on September 28, 2016 (GMT -0400)
Chautauqua County-Dunkirk

Weather History for KDKK - January, 2013

Change the Weather History Date:

Sunday, January 20, 2013

  Actual Average Record
Temperature  
Mean Temperature 34 °F -  
Max Temperature 48 °F 31 °F 62 °F (1951)
Min Temperature 21 °F 17 °F -4 °F (1985)
Degree Days  
Heating Degree Days 30    
Moisture  
Dew Point 16 °F    
Average Humidity 63    
Maximum Humidity 86    
Minimum Humidity 42    
Precipitation  
Precipitation 0.00 in - - ()
Sea Level Pressure  
Sea Level Pressure 29.93 in    
Wind  
Wind Speed 21 mph (West)    
Max Wind Speed 29 mph    
Max Gust Speed 45 mph    
Visibility 6 miles    
Events Fog , Snow    
Averages and records for this station are not official NWS values.
T = Trace of Precipitation, MM = Missing Value Source: NWS Daily Summary

Daily Weather History Graph

Daily Weather History Graph

Search for Another Location

Airport or City:

Trip Planner

Search our weather history database for the weather conditions in past years. The results will help you decide how hot, cold, wet, or windy it might be!

Date:

Astronomy

Jan. 20, 2013 Rise Set
Actual Time 7:41 AM EST 5:15 PM EST
Civil Twilight 7:10 AM EST 5:46 PM EST
Nautical Twilight 6:35 AM EST 6:20 PM EST
Astronomical Twilight 6:02 AM EST 6:54 PM EST
Moon 12:16 PM EST (1/20) 2:11 AM EST (1/20)
Length of Visible Light 10h 36m
Length of Day
9h 34m
Waxing Gibbous, 66% of the Moon is Illuminated
Jan 20
Waxing Gibbous
Jan 26
Full
Feb 3
Last Quarter
Feb 10
New
Feb 17
First Quarter

Hourly Weather History & Observations

Time (EST) Temp. Windchill Dew Point Humidity Pressure Visibility Wind Dir Wind Speed Gust Speed Precip Events Conditions
12:53 AM 48.0 °F - 26.1 °F 42% 29.58 in 10.0 mi SW 20.7 mph 32.2 mph N/A   Overcast
1:53 AM 48.0 °F - 27.0 °F 44% 29.56 in 10.0 mi SW 18.4 mph 38.0 mph N/A   Overcast
2:53 AM 46.9 °F - 28.0 °F 48% 29.55 in 10.0 mi SW 21.9 mph 35.7 mph N/A   Overcast
3:53 AM 45.0 °F 35.8 °F 32.0 °F 60% 29.56 in 10.0 mi WSW 26.5 mph 44.9 mph N/A   Overcast
4:53 AM 42.1 °F 32.1 °F 28.9 °F 60% 29.57 in 10.0 mi WSW 25.3 mph 41.4 mph N/A   Mostly Cloudy
5:53 AM 37.9 °F 25.9 °F 25.0 °F 60% 29.62 in 8.0 mi WSW 28.8 mph 43.7 mph 0.00 in Snow Light Snow
6:53 AM 33.1 °F 19.3 °F 19.9 °F 59% 29.72 in 9.0 mi West 28.8 mph 41.4 mph 0.00 in Snow Light Snow
7:53 AM 30.0 °F 15.4 °F 16.0 °F 56% 29.81 in 9.0 mi West 27.6 mph 43.7 mph 0.00 in Snow Light Snow
8:53 AM 28.9 °F 15.8 °F 16.0 °F 58% 29.87 in 9.0 mi West 20.7 mph 40.3 mph 0.00 in Snow Light Snow
9:38 AM 26.6 °F 12.4 °F 17.6 °F 69% 29.89 in 2.5 mi West 21.9 mph 38.0 mph 0.00 in Snow Light Snow
9:44 AM 26.6 °F 12.4 °F 17.6 °F 69% 29.89 in 1.8 mi West 21.9 mph 36.8 mph 0.00 in Snow Light Snow
9:53 AM 27.0 °F 12.8 °F 17.1 °F 66% 29.92 in 1.8 mi West 21.9 mph 34.5 mph 0.00 in Snow Light Snow
10:04 AM 26.6 °F 12.4 °F 19.4 °F 74% 29.91 in 0.8 mi West 21.9 mph 32.2 mph 0.00 in Snow Light Snow
10:30 AM 24.8 °F 10.0 °F 21.2 °F 86% 29.93 in 0.5 mi West 21.9 mph 29.9 mph 0.00 in Fog , Snow Snow
10:53 AM 24.1 °F 11.0 °F 19.9 °F 84% 29.96 in 0.5 mi West 16.1 mph 34.5 mph 0.00 in Fog , Snow Snow
11:16 AM 24.8 °F 10.3 °F 17.6 °F 74% 29.96 in 1.0 mi West 20.7 mph 36.8 mph 0.00 in Snow Light Snow
11:20 AM 24.8 °F 9.3 °F 15.8 °F 69% 29.96 in 2.0 mi West 24.2 mph 36.8 mph 0.00 in Snow Light Snow
11:53 AM 23.0 °F 9.2 °F 15.1 °F 72% 29.99 in 1.5 mi WSW 17.3 mph 40.3 mph 0.00 in Snow Light Snow
11:57 AM 24.8 °F 10.3 °F 14.0 °F 64% 29.97 in 2.0 mi West 20.7 mph 40.3 mph 0.00 in Snow Light Snow
12:01 PM 24.8 °F 10.0 °F 14.0 °F 64% 29.97 in 3.0 mi West 21.9 mph 33.4 mph 0.00 in Snow Light Snow
12:03 PM 23.0 °F 7.6 °F 15.8 °F 74% 29.97 in 2.0 mi West 21.9 mph 33.4 mph 0.00 in Snow Light Snow
12:05 PM 23.0 °F 6.9 °F 15.8 °F 74% 29.97 in 1.2 mi West 24.2 mph 36.8 mph 0.00 in Snow Light Snow
12:16 PM 23.0 °F 7.2 °F 12.2 °F 63% 29.97 in 4.0 mi West 23.0 mph 32.2 mph 0.00 in Snow Light Snow
12:53 PM 24.1 °F 9.4 °F 10.0 °F 55% 30.01 in 10.0 mi West 20.7 mph 34.5 mph 0.00 in   Mostly Cloudy
1:53 PM 23.0 °F 10.1 °F 10.0 °F 58% 30.03 in 10.0 mi West 15.0 mph 29.9 mph N/A   Overcast
2:53 PM 23.0 °F 8.7 °F 10.9 °F 60% 30.04 in 10.0 mi West 18.4 mph 27.6 mph 0.00 in   Overcast
3:45 PM 23.0 °F 9.6 °F 14.0 °F 68% 30.03 in 2.0 mi WSW 16.1 mph 25.3 mph 0.00 in Snow Light Snow
3:48 PM 23.0 °F 9.2 °F 12.2 °F 63% 30.03 in 3.0 mi West 17.3 mph 26.5 mph 0.00 in Snow Light Snow
3:53 PM 23.0 °F 9.2 °F 12.0 °F 63% 30.05 in 5.0 mi West 17.3 mph 26.5 mph 0.00 in Snow Light Snow
4:10 PM 21.2 °F 6.0 °F 14.0 °F 74% 30.04 in 1.5 mi WSW 19.6 mph 32.2 mph 0.00 in Snow Light Snow
4:27 PM 23.0 °F 10.6 °F 12.2 °F 63% 30.05 in 3.0 mi West 13.8 mph 29.9 mph 0.00 in Snow Light Snow
4:40 PM 21.2 °F 7.3 °F 12.2 °F 68% 30.05 in 2.5 mi West 16.1 mph 31.1 mph 0.00 in Snow Light Snow
4:53 PM 23.0 °F 9.6 °F 10.9 °F 60% 30.08 in 9.0 mi West 16.1 mph 25.3 mph 0.00 in Snow Light Snow
5:53 PM 21.9 °F 8.2 °F 12.0 °F 66% 30.10 in 8.0 mi West 16.1 mph 27.6 mph 0.00 in Snow Light Snow
6:53 PM 23.0 °F 10.1 °F 9.0 °F 55% 30.11 in 10.0 mi West 15.0 mph 25.3 mph 0.00 in   Overcast
7:53 PM 23.0 °F 10.6 °F 10.9 °F 60% 30.12 in 10.0 mi WNW 13.8 mph 23.0 mph N/A   Overcast
8:53 PM 23.0 °F 9.6 °F 10.0 °F 58% 30.12 in 10.0 mi WNW 16.1 mph 27.6 mph 0.00 in   Overcast
9:53 PM 21.9 °F 8.2 °F 7.0 °F 53% 30.12 in 10.0 mi West 16.1 mph 25.3 mph N/A   Overcast
10:53 PM 21.9 °F 9.2 °F 8.1 °F 55% 30.12 in 10.0 mi WNW 13.8 mph 20.7 mph N/A   Overcast
11:53 PM 21.0 °F 8.6 °F 8.1 °F 57% 30.11 in 10.0 mi West 12.7 mph 20.7 mph N/A   Overcast